| Date | Time | Temp. (oF) | Dew Point (oF) | Rel. Hum. (%) | Press. (in.) | Wind Dir. | Wind Speed (mph) | Hourly Rainfall (in.) |
|
|---|---|---|---|---|---|---|---|---|---|
| 1 | 03/20 | 00:00 | 63 | 60 | 90 | 29.33 | SSW | 10 | 0.00 |
| 2 | 03/19 | 23:00 | 62 | 59 | 91 | 29.35 | SSW | 7 | 0.00 |
| 3 | 03/19 | 22:00 | 60 | 57 | 93 | 29.39 | SSW | 7 | 0.00 |
| 4 | 03/19 | 21:00 | 60 | 58 | 95 | 29.40 | SSE | 5 | 0.00 |
| 5 | 03/19 | 20:00 | 60 | 59 | 97 | 29.38 | SE | 5 | 0.00 |
| 6 | 03/19 | 19:00 | 60 | 59 | 99 | 29.47 | SSW | 13 | 0.03 |
| 7 | 03/19 | 18:00 | 59 | 59 | 100 | 29.52 | S | 10 | 0.05 |
| 8 | 03/19 | 17:00 | 58 | 58 | 100 | 29.55 | S | 9 | 0.03 |
| 9 | 03/19 | 16:00 | 57 | 57 | 100 | 29.59 | SE | 12 | 0.09 |
| 10 | 03/19 | 15:00 | 55 | 54 | 100 | 29.61 | S | 2 | 0.08 |
| 11 | 03/19 | 14:00 | 53 | 53 | 100 | 29.63 | S | 3 | 0.10 |
| 12 | 03/19 | 13:00 | 52 | 51 | 98 | 29.72 | S | 0 | 0.09 |
| 13 | 03/19 | 12:00 | 52 | 50 | 95 | 29.74 | S | 5 | 0.00 |
| 14 | 03/19 | 11:00 | 48 | 48 | 100 | 29.76 | NE | 3 | 0.00 |
| 15 | 03/19 | 10:00 | 46 | 45 | 100 | 29.80 | ESE | 1 | 0.00 |
| 16 | 03/19 | 09:00 | 44 | 44 | 100 | 29.81 | NE | 2 | 0.00 |
| 17 | 03/19 | 08:00 | 43 | 42 | 100 | 29.84 | E | 2 | 0.00 |
| 18 | 03/19 | 07:00 | 42 | 41 | 100 | 29.86 | ESE | 2 | 0.00 |
| 19 | 03/19 | 06:00 | 42 | 41 | 100 | 29.89 | SE | 3 | 0.01 |
| 20 | 03/19 | 05:00 | 42 | 41 | 100 | 29.93 | E | 2 | 0.00 |
| 21 | 03/19 | 04:00 | 42 | 41 | 100 | 29.94 | SE | 3 | 0.00 |
| 22 | 03/19 | 03:00 | 41 | 41 | 100 | 29.99 | ESE | 2 | 0.01 |
| 23 | 03/19 | 02:00 | 40 | 40 | 100 | 30.05 | SE | 2 | 0.06 |
| 24 | 03/19 | 01:00 | 39 | 39 | 100 | 30.09 | ESE | 9 | 0.05 |